Regional Weather Roundup
Issued by NWS

Home | Current Version | Previous Version | Graphics & Text | Print | Product List | Glossary On
Versions: 1 2 3 4 5 6 7 8 9 10 11 12 13 14 15 16 17 18 19 20 21 22 23 24 25 26 27 28 29 30 31 32 33 34 35 36 37 38 39 40 41 42 43 44 45 46 47 48 49 50
000
ASUS43 KIND 260509
RWRIN

WEATHER ROUNDUP FOR INDIANA
NATIONAL WEATHER SERVICE INDIANAPOLIS IN
1200 AM EST MON JAN 26 2015

NOTE: "FAIR" INDICATES FEW OR NO CLOUDS BELOW 12,000 FEET WITH NO
SIGNIFICANT WEATHER AND/OR OBSTRUCTIONS TO VISIBILITY.

* - STATION DOES NOT REPORT WEATHER SUCH AS PRECIPITATION OR FOG.

+ - STATION NOT QUALITY CONTROLLED BY THE NATIONAL WEATHER SERVICE.
    USE DATA WITH CAUTION...ESPECIALLY DEWPOINT AND RELATIVE
    HUMIDITY OBSERVATIONS.

INZ001>003-010>013-019-020-260600-
NORTHWEST INDIANA

CITY           SKY/WX    TMP DP  RH WIND       PRES   REMARKS
GARY /AIRPORT/ CLOUDY    27  16  64 N10       29.98F WCI  17
KNOX *+        CLOUDY    24   7  48 NE10      29.94S WCI  13
LA PORTE +     PTCLDY    21  15  76 N9        29.96S WCI  11
MICHIGAN CITY+ CLEAR     21  10  63 NE7       29.98R WCI  13
MONTICELLO +   CLOUDY    25  20  82 NE13      29.93R WCI  13
RENSSELAER +   CLOUDY    27  25  93 NE8       29.94F WCI  18
VALPARAISO     PTCLDY    21  14  74 N7        29.96R WCI  12

$$

LMZ046-743>745-260600-
SOUTHERN LAKE MICHIGAN

STATION/POSITION TIME  TEMP WIND        PRES
                       AIR  DIR/SP/G
                 (UTC) (F)  (DEG/KT/KT) (MB)
MICHIGAN CITY    0500   22   30/ 17/ 19   N/A

$$

INZ004-005-014>016-021>024-260600-
NORTH CENTRAL INDIANA

CITY           SKY/WX    TMP DP  RH WIND       PRES   REMARKS
GOSHEN         CLOUDY    22  10  60 NE10      29.94R WCI  11
LOGANSPORT +   CLOUDY    25  19  80 N10       29.93R WCI  15
PERU/GRISSOM   CLOUDY    22  17  79 NE17G25   29.90R WCI   8
ROCHESTER +    CLOUDY    27  23  86 N7        29.93S WCI  19
SOUTH BEND     CLEAR     20  11  68 NE7       29.96S WCI  11
WARSAW +       CLOUDY    23  16  74 NE10      29.93R WCI  12

$$

INZ006>009-017-018-025>027-260600-
NORTHEAST INDIANA

CITY           SKY/WX    TMP DP  RH WIND       PRES   REMARKS
ANGOLA *+      CLOUDY    18   7  62 NE9       29.93R WCI   6
AUBURN +       CLOUDY    21  10  63 NE14      29.93R WCI   8
FORT WAYNE     CLOUDY    20  13  74 NE14      29.92R WCI   7
HUNTINGTON +   CLOUDY    19  10  68 NE9G16    29.91R WCI   9

$$

INZ028-029-035-036-043>045-051>053-260600-
WEST CENTRAL INDIANA

CITY           SKY/WX    TMP DP  RH WIND       PRES   REMARKS
GREENCASTLE +  CLOUDY    25  18  74 N16G24    29.87R WCI  12
LAFAYETTE      CLOUDY    25  20  81 N12       29.93R WCI  14
TERRE HAUTE    CLOUDY    27  22  81 N15G25    29.88R WCI  15

$$

INZ030>032-037>040-046>048-054>057-064-065-260600-
CENTRAL INDIANA

CITY           SKY/WX    TMP DP  RH WIND       PRES   REMARKS
CP ATTERBURY + CLOUDY    27  21  80 N16       29.82R WCI  14
INDIANAPOLIS   CLOUDY    20  17  88 NE20      29.84R WCI   4
-EAGLE CREEK   CLOUDY    22  18  85 N12G21    29.85R WCI  10
KOKOMO *+      CLOUDY    21  16  79 NE15      29.90R WCI   8
MARION +       CLOUDY    19  15  84 NE18G24   29.89R WCI   4
MT COMFORT *+  CLOUDY    23  14  68 NE17G24   29.84R WCI   9
SHELBYVILLE    CLOUDY    24  19  81 N15G24    29.80R WCI  11
ZIONSVILLE +   CLOUDY    23  18  81 N16       29.87R WCI  10

$$

INZ033-034-041-042-049-050-058-059-260600-
EAST CENTRAL INDIANA

CITY           SKY/WX    TMP DP  RH WIND       PRES   REMARKS
MUNCIE         CLOUDY    20  15  81 NE20G26   29.84R WCI   4

$$

INZ060-061-067>069-081>083-085>088-260600-
SOUTHWEST INDIANA

CITY           SKY/WX    TMP DP  RH WIND       PRES   REMARKS
EVANSVILLE     FLURRIES  34  30  85 N18G29    29.83R WCI  23
HUNTINGBURG *+ CLOUDY    32  28  86 N17G25    29.79R WCI  21
WASHINGTON +   CLOUDY    30  26  83 N15G21    29.83R WCI  19

$$

INZ062-063-066-070>080-084-089>092-260600-
SOUTH CENTRAL AND SOUTHEAST INDIANA

CITY           SKY/WX    TMP DP  RH WIND       PRES   REMARKS
BLOOMINGTON    CLOUDY    26  22  84 N16       29.81R WCI  14

$$



USA.gov is the U.S. government's official web portal to all federal, state and local government web resources and services.